| time (UTC) | temp C | wind direction | speed KPH | gust KPH | rain 1hr cm | rain 24hr cm | rain mn cm | humidity % | barometer mb |
| 20260503194521 | 15 | 134 | 0.0 | 1.6 | 0.00 | 0.05 | 0.05 | 75 | 701.4 |
| 20260503193112 | 15 | 130 | 0.0 | 3.2 | 0.00 | 0.05 | 0.05 | 74 | 701.8 |
| 20260503191509 | 13 | 117 | 0.0 | 11.3 | 0.00 | 0.05 | 0.05 | 78 | 702.2 |
| 20260503190007 | 13 | 113 | 0.0 | 1.6 | 0.00 | 0.05 | 0.05 | 80 | 702.5 |
| 20260503184507 | 13 | 128 | 0.0 | 12.9 | 0.00 | 0.05 | 0.05 | 81 | 702.8 |
| 20260503183004 | 14 | 145 | 0.0 | 12.9 | 0.00 | 0.05 | 0.05 | 77 | 703.0 |
| 20260503181502 | 14 | 135 | 0.0 | 24.1 | 0.00 | 0.05 | 0.05 | 80 | 703.4 |
| 20260503180100 | 14 | 137 | 0.0 | 16.1 | 0.00 | 0.05 | 0.05 | 81 | 703.8 |
| 20260503174618 | 14 | 132 | 0.0 | 17.7 | 0.00 | 0.05 | 0.05 | 81 | 703.9 |
| 20260503173131 | 13 | 121 | 0.0 | 8.0 | 0.00 | 0.05 | 0.05 | 79 | 703.9 |
| 20260503171556 | 14 | 127 | 0.0 | 3.2 | 0.00 | 0.05 | 0.05 | 83 | 704.1 |
| 20260503090107 | 8 | 114 | 0.0 | 0.0 | 0.00 | 0.05 | 0.03 | 91 | 703.1 |
| 20260503081600 | 8 | 110 | 0.0 | 0.0 | 0.00 | 0.05 | 0.03 | 91 | 703.0 |
| 20260503071608 | 8 | 134 | 0.0 | 0.0 | 0.03 | 0.05 | 0.03 | 91 | 703.9 |
| 20260503070103 | 8 | 137 | 0.0 | 0.0 | 0.00 | 0.03 | 0.00 | 91 | 704.3 |
| 20260503054552 | 8 | 138 | 0.0 | 0.0 | 0.00 | 0.03 | 0.03 | 90 | 705.4 |
| 20260503053039 | 9 | 139 | 0.0 | 0.0 | 0.00 | 0.03 | 0.03 | 90 | 705.5 |
| 20260503051546 | 9 | 133 | 0.0 | 0.0 | 0.00 | 0.03 | 0.03 | 90 | 705.8 |
| 20260503050037 | 9 | 120 | 0.0 | 0.0 | 0.00 | 0.03 | 0.03 | 90 | 705.9 |
| 20260503044537 | 9 | 119 | 0.0 | 0.0 | 0.00 | 0.03 | 0.03 | 90 | 706.1 |
| 20260503043036 | 9 | 119 | 0.0 | 0.0 | 0.00 | 0.03 | 0.03 | 90 | 706.2 |
| 20260503041536 | 9 | 157 | 0.0 | 0.0 | 0.00 | 0.03 | 0.03 | 90 | 706.4 |
| 20260503040035 | 9 | 160 | 0.0 | 0.0 | 0.00 | 0.03 | 0.03 | 90 | 706.5 |
| 20260503034533 | 9 | 156 | 0.0 | 0.0 | 0.00 | 0.03 | 0.03 | 90 | 706.6 |
| 20260503033039 | 9 | 155 | 0.0 | 0.0 | 0.00 | 0.03 | 0.03 | 89 | 706.5 |
| 20260503031536 | 10 | 155 | 0.0 | 0.0 | 0.00 | 0.03 | 0.03 | 89 | 706.4 |
| 20260503030034 | 10 | 156 | 0.0 | 0.0 | 0.00 | 0.03 | 0.03 | 89 | 706.0 |
| 20260503024535 | 10 | 156 | 0.0 | 0.0 | 0.00 | 0.03 | 0.03 | 88 | 705.9 |
| 20260503023027 | 10 | 156 | 0.0 | 0.0 | 0.00 | 0.03 | 0.03 | 89 | 705.6 |
| 20260503021527 | 10 | 153 | 0.0 | 0.0 | 0.00 | 0.03 | 0.03 | 90 | 705.5 |
| 20260503020026 | 9 | 155 | 0.0 | 0.0 | 0.00 | 0.03 | 0.03 | 89 | 705.6 |
| 20260503014524 | 10 | 138 | 0.0 | 0.0 | 0.00 | 0.03 | 0.03 | 89 | 705.4 |
| 20260503013032 | 10 | 137 | 0.0 | 0.0 | 0.00 | 0.03 | 0.03 | 89 | 705.2 |
| 20260503011522 | 10 | 138 | 0.0 | 0.0 | 0.00 | 0.03 | 0.03 | 89 | 704.8 |
| 20260503010022 | 10 | 138 | 0.0 | 0.0 | 0.00 | 0.03 | 0.03 | 90 | 704.5 |
| 20260503004521 | 10 | 137 | 0.0 | 0.0 | 0.00 | 0.03 | 0.03 | 89 | 704.1 |
| 20260503003027 | 10 | 137 | 0.0 | 0.0 | 0.00 | 0.03 | 0.03 | 89 | 704.0 |
| 20260503001520 | 10 | 132 | 0.0 | 0.0 | 0.00 | 0.03 | 0.03 | 89 | 703.8 |
| 20260503000022 | 10 | 132 | 0.0 | 0.0 | 0.00 | 0.03 | 0.03 | 89 | 703.7 |
| 20260502234521 | 10 | 132 | 0.0 | 0.0 | 0.00 | 0.03 | 0.03 | 89 | 703.4 |
| 20260502233019 | 10 | 130 | 0.0 | 0.0 | 0.00 | 0.03 | 0.03 | 88 | 703.0 |
| 20260502231524 | 10 | 104 | 0.0 | 0.0 | 0.00 | 0.03 | 0.03 | 88 | 702.8 |
| 20260502230017 | 10 | 128 | 0.0 | 1.6 | 0.00 | 0.03 | 0.03 | 87 | 702.4 |
| 20260502224516 | 10 | 112 | 0.0 | 0.0 | 0.00 | 0.03 | 0.03 | 86 | 702.2 |
| 20260502223015 | 11 | 122 | 0.0 | 1.6 | 0.00 | 0.03 | 0.03 | 85 | 702.2 |
| 20260502221516 | 11 | 89 | 0.0 | 3.2 | 0.00 | 0.03 | 0.03 | 83 | 702.0 |
| 20260502220020 | 12 | 131 | 0.0 | 11.3 | 0.00 | 0.03 | 0.03 | 80 | 701.8 |
| 20260502214517 | 12 | 102 | 0.0 | 6.4 | 0.00 | 0.03 | 0.03 | 78 | 701.7 |
| 20260502213032 | 12 | 76 | 0.0 | 17.7 | 0.00 | 0.03 | 0.03 | 79 | 701.6 |
| 20260502211518 | 13 | 92 | 0.0 | 17.7 | 0.00 | 0.03 | 0.03 | 74 | 701.6 |
| 20260502210013 | 14 | 96 | 3.2 | 24.1 | 0.00 | 0.03 | 0.03 | 74 | 701.7 |
| 20260502204510 | 13 | 84 | 0.0 | 17.7 | 0.00 | 0.03 | 0.03 | 71 | 701.8 |
| 20260502203009 | 14 | 96 | 1.6 | 17.7 | 0.00 | 0.03 | 0.03 | 67 | 702.1 |
| 20260502201522 | 13 | 100 | 1.6 | 22.5 | 0.00 | 0.03 | 0.03 | 74 | 702.3 |
| 20260502200007 | 12 | 90 | 1.6 | 29.0 | 0.00 | 0.03 | 0.03 | 71 | 702.6 |